Twin Falls, ID

5:48 PM MDT on September 22, 2017 (GMT -0600)
Joslin Field-Magic Valley Regional

Weather History for KTWF - November, 2011

Change the Weather History Date:

Sunday, November 6, 2011

  Actual Average Record
Temperature  
Mean Temperature 35 °F -  
Max Temperature 43 °F 54 °F 75 °F (1999)
Min Temperature 26 °F 31 °F 12 °F (2003)
Degree Days  
Heating Degree Days 30 23  
Month to date heating degree days 166 132  
Since 1 July heating degree days 558 751  
Cooling Degree Days 0 0  
Month to date cooling degree days 0 0  
Year to date cooling degree days 736 680  
Moisture  
Dew Point 24 °F    
Average Humidity 69    
Maximum Humidity 92    
Minimum Humidity 45    
Precipitation  
Precipitation T in 0.04 in 0.18 in (1991)
Month to date precipitation T 0.24  
Year to date precipitation 8.38 8.49  
Sea Level Pressure  
Sea Level Pressure 29.91 in    
Wind  
Wind Speed 6 mph (South)    
Max Wind Speed 15 mph    
Max Gust Speed 20 mph    
Visibility 9 miles    
Events Snow    
T = Trace of Precipitation, MM = Missing Value Source: NWS Daily Summary

Daily Weather History Graph

Daily Weather History Graph

Search for Another Location

Airport or City:

Trip Planner

Search our weather history database for the weather conditions in past years. The results will help you decide how hot, cold, wet, or windy it might be!

Date:

Astronomy

Nov. 06, 2011 Rise Set
Actual Time 7:17 AM MST 5:25 PM MST
Civil Twilight 6:47 AM MST 5:54 PM MST
Nautical Twilight 6:14 AM MST 6:28 PM MST
Astronomical Twilight 5:41 AM MST 7:01 PM MST
Moon 3:14 PM MST (11/6) 3:23 AM MST (11/6)
Length of Visible Light 11h 06m
Length of Day
10h 07m
Waxing Gibbous, 86% of the Moon is Illuminated
Nov 6
Waxing Gibbous
Nov 10
Full
Nov 18
Last Quarter
Nov 24
New
Dec 2
First Quarter

Hourly Weather History & Observations

Time (MST) Temp. Windchill Dew Point Humidity Pressure Visibility Wind Dir Wind Speed Gust Speed Precip Events Conditions
12:53 AM 28.0 °F 24.2 °F 21.9 °F 78% 29.86 in 10.0 mi SE 3.5 mph - N/A   Overcast
1:53 AM 30.9 °F 25.2 °F 24.1 °F 76% 29.85 in 10.0 mi South 5.8 mph - N/A   Overcast
1:53 AM 30.0 °F 25.2 °F 21.9 °F 72% 29.84 in 10.0 mi South 4.6 mph - N/A   Overcast
2:53 AM 28.9 °F 20.4 °F 19.9 °F 69% 29.84 in 10.0 mi South 9.2 mph - N/A   Mostly Cloudy
3:53 AM 27.0 °F 18.7 °F 19.0 °F 72% 29.84 in 10.0 mi South 8.1 mph - N/A   Mostly Cloudy
4:53 AM 28.9 °F 21.1 °F 18.0 °F 64% 29.84 in 10.0 mi SSE 8.1 mph - N/A   Scattered Clouds
5:53 AM 30.9 °F 22.8 °F 19.0 °F 61% 29.85 in 10.0 mi South 9.2 mph - N/A   Overcast
6:53 AM 33.1 °F 26.9 °F 19.9 °F 59% 29.85 in 10.0 mi SSE 6.9 mph - N/A   Overcast
7:53 AM 34.0 °F 27.2 °F 21.0 °F 59% 29.88 in 10.0 mi South 8.1 mph - N/A   Overcast
8:53 AM 35.1 °F 29.3 °F 21.0 °F 57% 29.89 in 10.0 mi SSE 6.9 mph - N/A   Overcast
9:53 AM 37.9 °F 32.1 °F 21.0 °F 51% 29.90 in 10.0 mi South 8.1 mph - N/A   Overcast
10:53 AM 39.0 °F 31.4 °F 21.9 °F 50% 29.91 in 10.0 mi South 12.7 mph - N/A   Overcast
11:53 AM 42.1 °F 39.2 °F 23.0 °F 47% 29.91 in 10.0 mi SSW 4.6 mph - N/A   Overcast
12:53 PM 42.1 °F 39.2 °F 23.0 °F 47% 29.88 in 10.0 mi South 4.6 mph - N/A   Overcast
1:53 PM 42.1 °F 36.6 °F 25.0 °F 51% 29.88 in 10.0 mi South 9.2 mph - N/A   Overcast
2:53 PM 42.1 °F 36.6 °F 24.1 °F 49% 29.89 in 10.0 mi NNW 9.2 mph - N/A   Overcast
3:53 PM 41.0 °F 39.0 °F 24.1 °F 51% 29.91 in 10.0 mi North 3.5 mph - N/A   Overcast
4:53 PM 41.0 °F - 24.1 °F 51% 29.92 in 10.0 mi Calm Calm - N/A   Overcast
5:53 PM 39.9 °F - 25.0 °F 55% 29.94 in 10.0 mi Calm Calm - N/A   Overcast
6:53 PM 37.0 °F 34.5 °F 25.0 °F 62% 29.96 in 10.0 mi West 3.5 mph - N/A   Overcast
7:53 PM 37.0 °F 32.4 °F 27.0 °F 67% 29.98 in 7.0 mi SW 5.8 mph - 0.00 in Snow Light Snow
8:03 PM 35.6 °F 31.7 °F 28.4 °F 75% 29.98 in 3.0 mi SSW 4.6 mph - 0.00 in Snow Light Snow
8:10 PM 35.6 °F 31.7 °F 30.2 °F 81% 29.99 in 1.8 mi SSW 4.6 mph - 0.00 in Snow Light Snow
8:29 PM 33.8 °F 30.8 °F 30.2 °F 87% 29.99 in 2.5 mi South 3.5 mph - 0.00 in Snow Light Snow
8:36 PM 33.8 °F 29.6 °F 30.2 °F 87% 29.99 in 6.0 mi South 4.6 mph - 0.00 in Snow Light Snow
8:53 PM 34.0 °F 28.8 °F 30.0 °F 85% 30.00 in 9.0 mi SSE 5.8 mph - 0.00 in   Overcast
9:53 PM 32.0 °F 25.6 °F 30.0 °F 92% 30.02 in 10.0 mi SSE 6.9 mph - N/A   Overcast
10:53 PM 30.9 °F 24.3 °F 28.0 °F 89% 30.03 in 9.0 mi South 6.9 mph - N/A   Overcast